Location: Camp Creek
(33.9000°N, 111.8167°W)
Time: 08:52:48
(UTC-07:00)

Cosmos 1656 - Visible Passes

Search period start: 04 August 2015 00:00
Search period end: 14 August 2015 00:00
Orbit: 799 x 849 km, 71.1° (Epoch: 03 August)

Date Brightness Start Highest point End Pass type
(mag) Time Alt. Az. Time Alt. Az. Time Alt. Az.
04 Aug 5.8 03:23:09 10° SE 03:26:49 19° ESE 03:30:42 10° NE visible
04 Aug 4.1 05:05:01 10° SW 05:10:10 43° WNW 05:15:19 10° N visible
05 Aug 5.9 03:03:36 11° SE 03:06:29 16° E 03:09:51 10° ENE visible
05 Aug 3.9 04:45:05 13° SW 04:49:44 51° WNW 04:55:01 10° N visible
06 Aug 6.0 02:44:15 11° ESE 02:46:09 13° E 02:48:47 10° ENE visible
06 Aug 3.7 04:25:43 21° SW 04:29:19 61° WNW 04:34:42 10° NNE visible
07 Aug 6.1 02:24:56 10° ESE 02:25:50 11° E 02:27:08 10° E visible
07 Aug 3.5 04:06:18 31° SSW 04:08:55 73° WNW 04:14:21 10° NNE visible
08 Aug 3.5 03:46:49 46° SSW 03:48:31 86° WNW 03:53:59 10° NNE visible
09 Aug 3.5 03:27:18 63° S 03:28:08 80° ESE 03:33:35 10° NNE visible
09 Aug 5.6 05:10:19 10° WNW 05:12:34 12° NW 05:14:29 10° NNW visible
10 Aug 3.7 03:07:44 66° ESE 03:07:45 67° ESE 03:13:10 10° NNE visible
10 Aug 5.5 04:49:11 10° W 04:52:01 14° NW 04:54:46 10° NNW visible
11 Aug 4.2 02:48:06 51° ENE 02:48:06 51° ENE 02:52:42 10° NNE visible
11 Aug 5.3 04:29:33 15° W 04:31:29 17° NW 04:34:51 10° NNW visible
12 Aug 4.8 02:28:26 38° ENE 02:28:26 38° ENE 02:32:13 10° NE visible
12 Aug 5.1 04:09:54 19° WNW 04:10:58 20° WNW 04:14:49 10° NNW visible
13 Aug 5.3 02:08:44 28° ENE 02:08:44 28° ENE 02:11:42 10° NE visible
13 Aug 4.9 03:50:12 23° WNW 03:50:28 23° WNW 03:54:43 10° N visible
